TimeEDT,TemperatureF,Dew PointF,Humidity,Sea Level PressureIn,VisibilityMPH,Wind Direction,Wind SpeedMPH,Gust SpeedMPH,PrecipitationIn,Events,Conditions,WindDirDegrees,DateUTC
12:29 AM,66.2,64.4,94,29.65,9.0,North,4.6,-,N/A,,Overcast,360,2013-06-28 04:29:00
12:36 AM,66.2,62.6,88,29.66,10.0,North,4.6,-,N/A,,Overcast,10,2013-06-28 04:36:00
12:46 AM,66.2,64.4,94,29.66,10.0,North,3.5,-,N/A,,Overcast,350,2013-06-28 04:46:00
12:54 AM,66.0,64.0,93,29.63,10.0,Calm,Calm,-,N/A,,Overcast,0,2013-06-28 04:54:00
1:54 AM,64.9,62.1,90,29.61,10.0,Calm,Calm,-,N/A,,Overcast,0,2013-06-28 05:54:00
2:54 AM,64.0,62.1,93,29.61,10.0,West,3.5,-,N/A,,Mostly Cloudy,260,2013-06-28 06:54:00
3:50 AM,62.6,62.6,100,29.63,1.5,Calm,Calm,-,N/A,,Mostly Cloudy,0,2013-06-28 07:50:00
3:54 AM,63.0,61.0,93,29.61,0.5,SSW,4.6,-,N/A,Fog,Fog,210,2013-06-28 07:54:00
4:01 AM,62.6,62.6,100,29.63,0.2,Calm,Calm,-,N/A,Fog,Fog,0,2013-06-28 08:01:00
4:32 AM,64.4,62.6,94,29.63,1.0,Calm,Calm,-,N/A,,Overcast,0,2013-06-28 08:32:00
4:36 AM,62.6,62.6,100,29.63,2.5,Calm,Calm,-,N/A,,Overcast,0,2013-06-28 08:36:00
4:40 AM,62.6,62.6,100,29.64,4.0,Calm,Calm,-,N/A,,Overcast,0,2013-06-28 08:40:00
4:54 AM,63.0,62.1,97,29.61,6.0,Calm,Calm,-,N/A,,Overcast,0,2013-06-28 08:54:00
5:54 AM,63.0,62.1,97,29.62,6.0,SSW,5.8,-,N/A,,Overcast,200,2013-06-28 09:54:00
6:25 AM,62.6,62.6,100,29.63,5.0,SW,3.5,-,N/A,,Mostly Cloudy,220,2013-06-28 10:25:00
6:54 AM,64.0,63.0,96,29.61,5.0,SSW,4.6,-,N/A,,Mostly Cloudy,210,2013-06-28 10:54:00
7:44 AM,64.4,62.6,94,29.63,6.0,SW,4.6,-,N/A,,Overcast,220,2013-06-28 11:44:00
7:51 AM,64.4,62.6,94,29.63,6.0,SW,3.5,-,N/A,,Mostly Cloudy,230,2013-06-28 11:51:00
7:54 AM,64.9,63.0,93,29.61,6.0,SSW,3.5,-,N/A,,Mostly Cloudy,210,2013-06-28 11:54:00
8:12 AM,66.2,64.4,94,29.62,10.0,SSW,4.6,-,N/A,,Mostly Cloudy,210,2013-06-28 12:12:00
8:54 AM,66.9,64.0,90,29.59,10.0,SW,4.6,-,N/A,,Mostly Cloudy,220,2013-06-28 12:54:00
9:01 AM,68.0,64.4,88,29.61,10.0,SSW,4.6,-,N/A,,Scattered Clouds,210,2013-06-28 13:01:00
9:20 AM,68.0,64.4,88,29.61,10.0,SSW,8.1,-,N/A,,Mostly Cloudy,200,2013-06-28 13:20:00
9:29 AM,68.0,64.4,88,29.61,10.0,SSW,6.9,-,N/A,,Mostly Cloudy,200,2013-06-28 13:29:00
9:54 AM,69.1,64.0,84,29.58,10.0,SW,8.1,-,N/A,,Overcast,230,2013-06-28 13:54:00
10:12 AM,69.8,64.4,83,29.61,10.0,SW,8.1,-,N/A,,Overcast,230,2013-06-28 14:12:00
10:15 AM,69.8,64.4,83,29.61,10.0,SW,5.8,-,N/A,,Overcast,230,2013-06-28 14:15:00
10:26 AM,69.8,64.4,83,29.60,10.0,SSW,5.8,-,N/A,,Mostly Cloudy,200,2013-06-28 14:26:00
10:37 AM,69.8,64.4,83,29.60,10.0,SW,5.8,-,N/A,,Mostly Cloudy,230,2013-06-28 14:37:00
10:42 AM,71.6,64.4,78,29.60,10.0,SSW,5.8,-,N/A,,Mostly Cloudy,200,2013-06-28 14:42:00
10:54 AM,72.0,64.0,76,29.57,10.0,SW,6.9,-,N/A,,Mostly Cloudy,220,2013-06-28 14:54:00
11:32 AM,71.6,64.4,78,29.59,10.0,Variable,4.6,-,N/A,,Overcast,0,2013-06-28 15:32:00
11:54 AM,73.9,64.9,73,29.55,10.0,Variable,3.5,-,N/A,,Mostly Cloudy,0,2013-06-28 15:54:00
12:16 PM,73.4,64.4,73,29.57,10.0,WSW,6.9,-,N/A,Thunderstorm,Mostly Cloudy,240,2013-06-28 16:16:00
12:27 PM,71.6,64.4,78,29.57,2.5,Calm,Calm,-,0.06,Rain-Thunderstorm,Light Thunderstorms and Rain,0,2013-06-28 16:27:00
12:35 PM,71.6,64.4,78,29.57,2.0,SW,3.5,-,0.06,Rain-Thunderstorm,Light Thunderstorms and Rain,230,2013-06-28 16:35:00
12:42 PM,71.6,66.2,83,29.57,10.0,WSW,3.5,-,0.06,Thunderstorm,Thunderstorm,250,2013-06-28 16:42:00
12:49 PM,73.4,64.4,73,29.57,10.0,Calm,Calm,-,0.06,,Mostly Cloudy,0,2013-06-28 16:49:00
12:54 PM,73.0,64.9,76,29.54,10.0,Variable,3.5,-,0.06,,Mostly Cloudy,0,2013-06-28 16:54:00
1:54 PM,77.0,64.9,66,29.52,10.0,SW,6.9,-,N/A,Thunderstorm,Partly Cloudy,220,2013-06-28 17:54:00
2:54 PM,72.0,64.0,76,29.52,10.0,South,13.8,20.7,0.00,Rain-Thunderstorm,Light Rain,180,2013-06-28 18:54:00
3:54 PM,64.0,62.1,93,29.57,10.0,NNW,8.1,-,0.05,Rain-Thunderstorm,Light Rain,340,2013-06-28 19:54:00
4:03 PM,64.4,60.8,88,29.59,10.0,North,8.1,-,0.00,Thunderstorm,Overcast,350,2013-06-28 20:03:00
4:22 PM,62.6,60.8,94,29.58,3.0,West,3.5,-,0.03,Rain,Heavy Rain,270,2013-06-28 20:22:00
4:54 PM,63.0,61.0,93,29.55,10.0,NNW,3.5,-,0.04,,Overcast,330,2013-06-28 20:54:00
5:54 PM,63.0,61.0,93,29.55,7.0,South,3.5,-,0.06,Rain,Light Rain,190,2013-06-28 21:54:00
6:54 PM,62.1,61.0,96,29.56,7.0,SW,9.2,-,0.01,Rain,Light Rain,220,2013-06-28 22:54:00
7:54 PM,62.1,60.1,93,29.55,9.0,SW,6.9,-,0.02,Rain,Light Rain,220,2013-06-28 23:54:00
8:12 PM,60.8,60.8,100,29.56,7.0,South,6.9,-,0.00,,Overcast,190,2013-06-29 00:12:00
8:24 PM,60.8,60.8,100,29.56,6.0,SW,3.5,-,0.00,,Overcast,230,2013-06-29 00:24:00
8:39 PM,60.8,60.8,100,29.57,6.0,SSW,4.6,-,0.00,,Mostly Cloudy,210,2013-06-29 00:39:00
8:54 PM,61.0,60.1,97,29.55,6.0,SSW,5.8,-,0.00,,Mostly Cloudy,210,2013-06-29 00:54:00
9:54 PM,61.0,59.0,93,29.57,10.0,SSW,3.5,-,N/A,,Overcast,210,2013-06-29 01:54:00
10:54 PM,60.1,57.9,93,29.58,6.0,South,6.9,-,N/A,,Scattered Clouds,190,2013-06-29 02:54:00
11:16 PM,60.8,57.2,88,29.59,8.0,SW,4.6,-,N/A,,Partly Cloudy,230,2013-06-29 03:16:00
11:54 PM,59.0,57.9,96,29.57,3.0,SSW,3.5,-,0.01,,Mostly Cloudy,200,2013-06-29 03:54:00